• In Belgien
  • Länderverzeichnis
  • Für 7 Tage
  • Wassertemperatur
  • Satellitenkarten
  • Wetterkarte
  • Widgets
  • user-avatar
    Anmelden

    Stündliche Wetter Aalst

    Heute, 23 April, Montag

    Zeit Temperatur Niederschläge Wind Luftdruck Luftfeuchtigkeit
    00:00 +13°C° 0 mm 4 m/S 758 mmHg 77%
    01:00 +12°C° 0 mm 4 m/S 758 mmHg 81%
    02:00 +12°C° 0 mm 4 m/S 758 mmHg 84%
    03:00 +11°C° 0 mm 4 m/S 758 mmHg 88%
    04:00 +11°C° 0 mm 4 m/S 759 mmHg 87%
    05:00 +11°C° 0 mm 4 m/S 759 mmHg 87%
    06:00 +11°C° 0 mm 4 m/S 759 mmHg 86%
    07:00 +12°C° 0 mm 4 m/S 760 mmHg 78%
    08:00 +13°C° 0 mm 5 m/S 760 mmHg 71%
    09:00 +14°C° 0 mm 5 m/S 761 mmHg 63%
    10:00 +15°C° 0 mm 5 m/S 761 mmHg 61%
    11:00 +16°C° 0 mm 5 m/S 761 mmHg 59%
    12:00 +16°C° 0 mm 5 m/S 761 mmHg 57%
    13:00 +17°C° 0 mm 5 m/S 761 mmHg 57%
    14:00 +17°C° 0 mm 5 m/S 761 mmHg 58%
    15:00 +17°C° 0 mm 6 m/S 761 mmHg 58%
    16:00 +16°C° 0 mm 5 m/S 761 mmHg 62%
    17:00 +15°C° 0 mm 4 m/S 761 mmHg 66%
    18:00 +14°C° 0 mm 4 m/S 761 mmHg 70%
    19:00 +12°C° 0 mm 4 m/S 761 mmHg 73%
    20:00 +11°C° 0 mm 4 m/S 762 mmHg 75%
    21:00 +10°C° 0 mm 4 m/S 762 mmHg 78%
    22:00 +8°C° 0 mm 4 m/S 762 mmHg 80%
    23:00 +8°C° 0 mm 4 m/S 762 mmHg 82%

    Morgen, 24 April, Dienstag

    Zeit Temperatur Niederschläge Wind Luftdruck Luftfeuchtigkeit
    00:00 +7°C° 0 mm 4 m/S 762 mmHg 84%
    01:00 +7°C° 0 mm 4 m/S 762 mmHg 85%
    02:00 +7°C° 0 mm 4 m/S 761 mmHg 86%
    03:00 +7°C° 0 mm 4 m/S 761 mmHg 87%
    04:00 +8°C° 0 mm 5 m/S 761 mmHg 86%
    05:00 +8°C° 0 mm 5 m/S 761 mmHg 84%
    06:00 +8°C° 0 mm 6 m/S 761 mmHg 83%
    07:00 +10°C° 0 mm 6 m/S 761 mmHg 78%
    08:00 +13°C° 0 mm 6 m/S 761 mmHg 73%
    09:00 +14°C° 0 mm 6 m/S 761 mmHg 69%
    10:00 +15°C° 0 mm 6 m/S 761 mmHg 68%
    11:00 +16°C° 0 mm 6 m/S 761 mmHg 68%
    12:00 +17°C° 0 mm 6 m/S 760 mmHg 68%
    13:00 +17°C° 0 mm 6 m/S 760 mmHg 69%
    14:00 +17°C° 0 mm 6 m/S 760 mmHg 70%
    15:00 +17°C° 0 mm 6 m/S 760 mmHg 72%
    16:00 +16°C° 0,1 mm 5 m/S 759 mmHg 76%
    17:00 +15°C° 0,1 mm 5 m/S 759 mmHg 80%
    18:00 +14°C° 0,1 mm 4 m/S 759 mmHg 84%
    19:00 +14°C° 0 mm 4 m/S 759 mmHg 86%
    20:00 +13°C° 0 mm 4 m/S 759 mmHg 88%
    21:00 +12°C° 0 mm 4 m/S 759 mmHg 91%
    22:00 +12°C° 0,1 mm 4 m/S 759 mmHg 91%
    23:00 +12°C° 0,1 mm 4 m/S 759 mmHg 90%

    übermorgen, 25 April, Mittwoch

    Zeit Temperatur Niederschläge Wind Luftdruck Luftfeuchtigkeit
    00:00 +12°C° 0,1 mm 4 m/S 759 mmHg 90%
    01:00 +12°C° 0,5 mm 4 m/S 759 mmHg 91%
    02:00 +12°C° 0,5 mm 4 m/S 758 mmHg 92%
    03:00 +12°C° 0,5 mm 4 m/S 758 mmHg 93%
    04:00 +12°C° 0,2 mm 4 m/S 758 mmHg 93%
    05:00 +11°C° 0,2 mm 4 m/S 758 mmHg 92%
    06:00 +11°C° 0,2 mm 4 m/S 759 mmHg 92%
    07:00 +12°C° 0,1 mm 4 m/S 759 mmHg 85%
    08:00 +12°C° 0,1 mm 5 m/S 759 mmHg 79%
    09:00 +13°C° 0,1 mm 6 m/S 760 mmHg 72%
    10:00 +14°C° 0 mm 6 m/S 760 mmHg 67%
    11:00 +14°C° 0 mm 7 m/S 760 mmHg 61%
    12:00 +15°C° 0 mm 7 m/S 760 mmHg 56%
    13:00 +15°C° 0 mm 7 m/S 760 mmHg 55%
    14:00 +15°C° 0 mm 7 m/S 760 mmHg 55%
    15:00 +14°C° 0 mm 7 m/S 760 mmHg 55%
    16:00 +12°C° 0 mm 7 m/S 760 mmHg 59%
    17:00 +11°C° 0 mm 6 m/S 760 mmHg 64%
    18:00 +12°C° 0 mm 5 m/S 760 mmHg 68%
    19:00 +10°C° 0 mm 5 m/S 760 mmHg 70%
    20:00 +9°C° 0 mm 5 m/S 760 mmHg 73%
    21:00 +8°C° 0 mm 5 m/S 761 mmHg 75%
    22:00 +8°C° 0 mm 5 m/S 761 mmHg 78%
    23:00 +7°C° 0 mm 5 m/S 761 mmHg 80%

    26 April, Donnerstag

    Zeit Temperatur Niederschläge Wind Luftdruck Luftfeuchtigkeit
    00:00 +7°C° 0 mm 5 m/S 761 mmHg 82%
    01:00 +7°C° 0 mm 5 m/S 761 mmHg 83%
    02:00 +7°C° 0 mm 5 m/S 761 mmHg 84%
    03:00 +6°C° 0 mm 5 m/S 761 mmHg 86%
    04:00 +7°C° 0 mm 5 m/S 761 mmHg 84%
    05:00 +7°C° 0 mm 5 m/S 761 mmHg 83%
    06:00 +7°C° 0 mm 6 m/S 761 mmHg 81%
    07:00 +8°C° 0 mm 6 m/S 761 mmHg 75%
    08:00 +10°C° 0 mm 6 m/S 761 mmHg 68%
    09:00 +11°C° 0 mm 6 m/S 762 mmHg 62%
    10:00 +11°C° 0,1 mm 6 m/S 762 mmHg 58%
    11:00 +13°C° 0,1 mm 6 m/S 762 mmHg 54%
    12:00 +14°C° 0,1 mm 6 m/S 762 mmHg 50%
    13:00 +14°C° 0 mm 6 m/S 761 mmHg 49%
    14:00 +14°C° 0 mm 6 m/S 761 mmHg 48%
    15:00 +14°C° 0 mm 5 m/S 761 mmHg 47%
    16:00 +13°C° 0 mm 5 m/S 761 mmHg 52%
    17:00 +12°C° 0 mm 4 m/S 761 mmHg 57%
    18:00 +11°C° 0 mm 4 m/S 761 mmHg 62%
    19:00 +10°C° 0 mm 3 m/S 762 mmHg 66%
    20:00 +9°C° 0 mm 3 m/S 762 mmHg 71%
    21:00 +7°C° 0 mm 3 m/S 762 mmHg 75%
    22:00 +7°C° 0 mm 3 m/S 762 mmHg 78%
    23:00 +5°C° 0 mm 3 m/S 762 mmHg 81%

    27 April, Freitag

    Zeit Temperatur Niederschläge Wind Luftdruck Luftfeuchtigkeit
    00:00 +6°C° 0 mm 2 m/S 762 mmHg 84%
    01:00 +6°C° 0 mm 2 m/S 761 mmHg 86%
    02:00 +5°C° 0 mm 2 m/S 761 mmHg 88%
    03:00 +5°C° 0 mm 2 m/S 761 mmHg 90%
    04:00 +5°C° 0 mm 2 m/S 761 mmHg 88%
    05:00 +6°C° 0 mm 2 m/S 761 mmHg 86%
    06:00 +6°C° 0 mm 2 m/S 761 mmHg 85%
    07:00 +8°C° 0,1 mm 2 m/S 761 mmHg 78%
    08:00 +10°C° 0,1 mm 2 m/S 761 mmHg 71%
    09:00 +12°C° 0,1 mm 2 m/S 761 mmHg 64%
    10:00 +13°C° 0,1 mm 2 m/S 760 mmHg 60%
    11:00 +14°C° 0,1 mm 2 m/S 760 mmHg 56%
    12:00 +14°C° 0,1 mm 2 m/S 760 mmHg 52%
    13:00 +14°C° 0,1 mm 2 m/S 760 mmHg 55%
    14:00 +13°C° 0,1 mm 3 m/S 759 mmHg 57%
    15:00 +13°C° 0,1 mm 3 m/S 759 mmHg 59%
    16:00 +12°C° 0 mm 3 m/S 759 mmHg 62%
    17:00 +12°C° 0 mm 2 m/S 759 mmHg 65%
    18:00 +12°C° 0 mm 2 m/S 759 mmHg 68%
    19:00 +10°C° 0 mm 2 m/S 759 mmHg 70%
    20:00 +9°C° 0 mm 1 m/S 760 mmHg 73%
    21:00 +8°C° 0 mm 1 m/S 760 mmHg 75%
    22:00 +8°C° 0 mm 1 m/S 760 mmHg 76%
    23:00 +7°C° 0 mm 1 m/S 760 mmHg 77%

    28 April, Samstag

    Zeit Temperatur Niederschläge Wind Luftdruck Luftfeuchtigkeit
    00:00 +6°C° 0 mm 1 m/S 760 mmHg 78%
    01:00 +6°C° 0 mm 1 m/S 760 mmHg 79%
    02:00 +6°C° 0 mm 1 m/S 760 mmHg 79%
    03:00 +5°C° 0 mm 1 m/S 759 mmHg 80%
    04:00 +6°C° 0 mm 1 m/S 759 mmHg 79%
    05:00 +6°C° 0 mm 2 m/S 759 mmHg 79%
    06:00 +6°C° 0 mm 2 m/S 759 mmHg 78%
    07:00 +8°C° 0 mm 3 m/S 759 mmHg 74%
    08:00 +8°C° 0 mm 4 m/S 759 mmHg 69%
    09:00 +11°C° 0 mm 4 m/S 759 mmHg 65%
    10:00 +12°C° 0 mm 5 m/S 758 mmHg 62%
    11:00 +13°C° 0 mm 5 m/S 758 mmHg 59%
    12:00 +14°C° 0 mm 5 m/S 757 mmHg 55%
    13:00 +14°C° 0 mm 5 m/S 757 mmHg 57%
    14:00 +14°C° 0 mm 5 m/S 756 mmHg 58%
    15:00 +14°C° 0 mm 5 m/S 756 mmHg 59%
    16:00 +13°C° 0,2 mm 5 m/S 755 mmHg 64%
    17:00 +12°C° 0,2 mm 5 m/S 755 mmHg 70%
    18:00 +10°C° 0,2 mm 5 m/S 755 mmHg 75%
    19:00 +10°C° 0,5 mm 6 m/S 754 mmHg 78%
    20:00 +10°C° 0,5 mm 7 m/S 754 mmHg 81%
    21:00 +10°C° 0,5 mm 8 m/S 753 mmHg 84%
    22:00 +10°C° 1,6 mm 8 m/S 753 mmHg 86%
    23:00 +10°C° 1,6 mm 8 m/S 752 mmHg 88%
    Mehr zeigen